Location: Newark
(45.7425°N, 0.7617°W)
Time: 14:12:30
(UTC+00:00)

N. Korean satellite - Pass Details

Date: 02 February 2020
Orbit: 456 x 505 km, 97.2° (Epoch: 29 February)

Event Time Altitude Azimuth Distance (km) Brightness Sun altitude
Rises 17:36:33 0° 191° (SSW) 2,464 10.6 -5.2°
Reaches altitude 10° 17:38:47 10° 204° (SSW) 1,600 9.9 -5.6°
Maximum altitude 17:41:45 27° 264° (W) 919 9.0 -6.1°
Drops below altitude 10° 17:44:47 10° 325° (NW) 1,628 9.5 -6.6°
Sets 17:47:04 0° 337° (NNW) 2,518 10.3 -6.9°
